Погода в Соловьевске

Погода в Соловьевске : погода сейчас, прогноз погоды и архив. Всё, что Вы хотите узнать о погоде в Соловьевске!

Поиск расширенной информации на нашем сайте:

Другие новости

Новости СМИ2

Главная страница сайта

Новости сайта

03.07.2017

Напоминаем, что на нашем специализированном сайте Метеоцентр.Азия вы можете получить высокодетализированные автоматические прогнозы погоды по пунктам России, СНГ и мира в авиационном формате (включающие направление и скорость ветра, видимость, явления погоды, количество и форму облачности, нижнюю и верхнюю границу облачности).


Погода в Соловьевске - сегодня

Время (UTC), дата Ветер
(°,м/с) 
Видим.   Явления Облачность Т
(°С)
Тd
(°С)
f(%) Тe
(°С)
Pmin
(гПа)
dP
(гПа)
Po
(мм)
O2
(г/м3)
Тmin Tmax R s Состояние
почвы
21 18.02.18 250 (З) 20000 м    3/0 верхняя 
[Ci sp]
-20.8 -24.4 73 -25  1029.9  -0.7  711  312           
03 19.02.18 310 (СЗ) 5{10}  20000 м    4/0 средняя, верхняя 
[Ac trans|Ci sp]
-14.2 -19.7 63 -20  1028.3  0.3  711  304           
09 19.02.18 320 (СЗ) 20000 м    3/0 верхняя 
[Ci sp]
-13.3 -19.6 59 -17  1027.1  0.1  710  302           
15 19.02.18 260 (З) 20000 м    1/0 верхняя 
[Ci sp]
-21.5 -26.3 65 -24  1030.6  711  313           
18 19.02.18 250 (З) 20000 м    ясно 
-21.9 -26 69 -25  1030.2  -0.5  711  313           
21 19.02.18 250 (З) 20000 м    ясно 
-23.3 -26.8 73 -28  1029.9  -0.8  710  314           
03 20.02.18 320 (СЗ) 20000 м    ясно 
-14.8 -20.2 63 -18  1028.2  0.5  711  304           
09 20.02.18 290 (З) 20000 м    1/0 верхняя 
[Ci sp]
-12 -18.4 59 -14  1025.1  -0.7  709  300           
15 20.02.18 220 (ЮЗ) 20000 м    1/0 верхняя 
[Ci sp]
-22.2 -25.2 77 -27  1026.1  -1.5  708  312           
18 20.02.18 240 (ЮЗ) 20000 м    10/0 средняя, верхняя 
[Ac trans|Ci sp]
-17.3 -21.3 71 -22  1022.4  -1.9  706  305           
21 20.02.18 290 (З) 20000 м    10/0 средняя, верхняя 
[Ac trans|Ci sp]
-12.7 -17.4 68 -18  1018.9  -1.9  705  299           
09 21.02.18 330 (СЗ) 2{10}  20000 м    4/0 средняя, верхняя 
[Ac trans|Ci sp]
-11.4 -17.5 61 -13  1017.1  0.6  704  297           
15 21.02.18 270 (З) 20000 м    6/0 верхняя 
[Ci sp]
-19.5 -21.7 83 -24  1020.3  0.1  704  307           
18 21.02.18 180 (Ю) 20000 м    6/0 верхняя 
[Ci sp]
-27.5 -30.6 75 -28  1022.7  -0.3  704  317           
21 21.02.18 220 (ЮЗ) 20000 м    6/0 верхняя 
[Ci sp]
-28 -31.2 74 -32  1022.7  -0.2  704  318           
03 22.02.18 360 (С) 20000 м    ясно 
-17.9 -21.1 76 -18  1019.9  0.3  704  305           
09 22.02.18 020 (С) 20000 м    ясно 
-16 -22 60 -20  1019.2  0.8  704  303           
15 22.02.18 090 (В) 20000 м    ясно 
-27.4 -30.4 76 -28  1025.4  1.2  706  318           
18 22.02.18 тихо ()   20000 м    3/0 верхняя 
[Ci sp]
-27.3 -30.3 76 -27  1026.9  1.4  707  318           
21 22.02.18 280 (З) 20000 м    1/0 верхняя 
[Ci sp]
-30.7 -34.2 71 -31  1029.9  1.6  708  323           
03 23.02.18 340 (С) 20000 м    1/0 верхняя 
[Ci sp]
-20.2 -23.7 74 -23  1031.2  2.2  712  311           
09 23.02.18 350 (С) 20000 м    ясно 
-13.3 -20.6 54 -13  1030.6  1.2  713  303           
15 23.02.18 140 (ЮВ) 20000 м    ясно 
-24.7 -27.8 75 -30  1036.1  0.3  714  318           
18 23.02.18 150 (ЮВ) 20000 м    ясно 
-25.9 -28.9 76 -29  1035.8  -0.7  714  319           
21 23.02.18 130 (ЮВ) 20000 м    3/0 верхняя 
[Ci sp]
-27.1 -30.2 75 -32  1035.1  -1  713  321           
Время (UTC), дата Ветер
(°,м/с) 
Видим.   Явления Облачность Т
(°С)
Тd
(°С)
f(%) Тe
(°С)
Pmin
(гПа)
dP
(гПа)
Po
(мм)
O2
(г/м3)
Тmin Tmax R s Состояние
почвы

Для получения пояснительной информации подведите курсор к названию столбца.

ПОГОДА в Соловьевске - архив

Всё, что Вы хотите узнать о погоде в Соловьевске - удобно и подробно!

Выберите нужную дату (начиная с 1 января 2015* года) и нажмите кнопку "Найти".
Будут отображены архивные сводки погоды по пункту Соловьевск, начиная с указанной даты.


Отображать данные в формате CSV (для использования в таблицах Excel)


Внимание! Наш архив погоды предназначен исключительно для личного некоммерческого использования в познавательных целях. Если Вам необходимы официальные справки о состоянии погоды (для производственных, юридических, коммерческих и т.п. целей), обращайтесь в органы Росгидромета.

*Примечание: данная дата относится к архиву по метеостанциям СССР (Россия, СНГ, Балтия).
Архив по метеостанциям Зарубежной Европы и Азии (кроме Китая) хранится 10 дней, по другим регионам земного шара (Китай, Африка, Америка, Австралия, Океания) - 1 день.

Соловьевск - район местоположения метеостанции


Название, широта, долгота, высота метеостанции:
Соловьевск 49.9°ш. 115.8°д. 623 м над ур. моря [Российская Федерация]

Дополнительная информация

В oтличие oт бoльшинства пoгoдных сайтoв мы публикуем пoдрoбную метеoинфoрмацию в детальнoм прoфессиoнальнoм фoрмате.

Характеристики температуры и влажнoсти вoздуха измеряются на высoте 2 м в тени вдали oт зданий и деревьев.
Скoрoсть ветра измеряется на высoте 10 м (на урoвне рoста челoвека скoрoсть ветра ниже в 1.5-2 раза). Если метеoстанция нахoдится в гoрoде или в лесу, тo скoрoсть ветра занижена на 2-4 м/с пo сравнению с oткрытым местoм. Скoрoсть ветра над акватoриями крупных рек и oзёр, а также на вершинах хoлмoв на 2-5 м/с выше, чем в oбычных услoвиях.
Атмoсфернoе давление в разных тoчках местнoсти мoжет значительнo oтличаться oт давления на метеoстанции, в зависимoсти oт услoвий рельефа (при пoдъёме на 10 м давление пoнижается примернo на 1 мм рт.ст.).